FW2567 Weather Reports


time (UTC)temp
F
wind
direction
speed
knots
gust
knots
rain 1hr
in
rain 24hr
in
rain mn
in
humidity
%
barometer
mb
20260904044608 49 202 0.0 0.0 0.00 0.04 0.04 93 1012.6
20260904043031 49 202 0.0 0.0 0.00 0.04 0.04 93 1012.6
20260904040030 50 195 0.9 1.7 0.00 0.04 0.04 92 1012.6
20260904033028 50 151 0.0 1.7 0.00 0.04 0.04 90 1012.3
20260904031530 50 173 0.9 3.5 0.00 0.04 0.04 89 1012.3
20260904030030 50 92 0.0 2.6 0.00 0.04 0.04 89 1012.1
20260904024531 51 13 0.9 4.3 0.00 0.04 0.04 88 1012.1
20260904023029 52 342 1.7 5.2 0.00 0.05 0.04 88 1011.9
20260904020104 54 22 0.9 3.5 0.00 0.12 0.04 88 1011.9
20260904014529 54 350 0.0 2.6 0.00 0.19 0.04 87 1011.9
20260904013031 54 350 1.7 4.3 0.00 0.19 0.04 87 1011.9
20260904011528 54 354 2.6 6.1 0.00 0.20 0.04 87 1011.8
20260904010033 54 18 3.5 7.8 0.00 0.21 0.04 87 1011.7
20260904004530 54 24 3.5 9.6 0.00 0.23 0.04 86 1011.7
20260904003033 55 341 2.6 7.0 0.00 0.24 0.04 86 1011.6
20260904000032 55 49 2.6 5.2 0.03 0.28 0.04 83 1011.6
20260903234644 55 53 3.5 6.1 0.03 0.28 0.04 82 1011.6
20260903233032 56 26 2.6 7.0 0.03 0.30 0.02 77 1011.9
20260903231531 58 305 2.6 8.7 0.01 0.28 0.01 72 1011.9
20260903230032 59 325 2.6 8.7 0.00 0.28 0.01 69 1011.8
20260903223030 63 294 3.5 9.6 0.00 0.28 0.01 66 1011.8
20260903221530 63 311 3.5 9.6 0.00 0.28 0.01 67 1011.7
20260903220033 63 342 2.6 5.2 0.00 0.30 0.01 68 1011.7
20260903211532 62 272 2.6 6.1 0.00 0.32 0.01 70 1011.8
20260903210031 62 288 2.6 6.1 0.00 0.33 0.01 70 1012.0
20260903204609 62 304 3.5 7.8 0.00 0.34 0.01 71 1012.0
20260903203030 62 291 3.5 7.0 0.00 0.35 0.01 70 1012.0
20260903201531 63 289 3.5 6.1 0.00 0.35 0.01 73 1012.2
20260903194529 61 288 3.5 6.1 0.00 0.36 0.01 74 1012.4
20260903193030 61 4 3.5 7.8 0.00 0.36 0.01 76 1012.5
20260903191532 59 12 3.5 7.0 0.00 0.36 0.01 79 1012.7
20260903184532 59 332 3.5 7.0 0.00 0.36 0.01 80 1013.0
20260903183029 61 307 3.5 7.8 0.00 0.36 0.01 78 1012.9
20260903180028 58 32 3.5 7.8 0.00 0.36 0.01 85 1012.9
20260903174531 57 48 2.6 6.1 0.00 0.36 0.01 89 1012.9
20260903173031 56 30 0.9 4.3 0.00 0.36 0.01 93 1013.0
20260903171606 53 60 0.9 3.5 0.00 0.36 0.01 95 1013.1
20260903170030 51 30 0.9 4.3 0.00 0.36 0.01 96 1013.0
20260903163146 50 344 0.9 3.5 0.00 0.36 0.01 97 1013.0
20260903161602 49 67 0.0 2.6 0.00 0.36 0.01 97 1013.1
20260903160040 48 67 0.9 3.5 0.00 0.36 0.01 97 1013.2
20260903154529 48 270 0.9 4.3 0.00 0.36 0.01 97 1013.1
20260903153031 47 269 0.9 3.5 0.00 0.36 0.01 97 1013.0
20260903151606 46 39 0.9 5.2 0.00 0.36 0.01 97 1013.1
20260903144529 45 271 0.9 4.3 0.00 0.36 0.01 97 1012.8
20260903143102 44 294 0.9 2.6 0.00 0.36 0.01 97 1012.8
20260903141532 44 274 0.9 3.5 0.00 0.36 0.01 97 1012.7
20260903134531 43 276 0.0 2.6 0.00 0.36 0.01 97 1012.4
20260903133031 42 195 0.9 4.3 0.00 0.36 0.01 97 1012.3
20260903131528 42 169 0.0 2.6 0.00 0.36 0.01 97 1012.2
20260903123031 41 145 0.0 2.6 0.00 0.36 0.01 96 1012.3
20260903121530 41 321 0.0 1.7 0.00 0.36 0.01 96 1012.2
20260903120031 42 131 0.9 3.5 0.00 0.36 0.01 96 1012.2
20260903113031 42 167 0.9 3.5 0.00 0.36 0.01 96 1012.3
20260903111530 41 179 1.7 5.2 0.00 0.36 0.01 96 1012.1
20260903110030 41 215 1.7 5.2 0.00 0.36 0.01 96 1012.0
20260903104647 41 165 0.9 3.5 0.00 0.36 0.01 96 1012.0
20260903101530 43 159 2.6 5.2 0.00 0.36 0.01 96 1011.7
20260903100031 43 151 1.7 5.2 0.01 0.36 0.01 96 1011.8
20260903093031 44 282 0.0 0.9 0.01 0.36 0.01 96 1011.9
20260903091530 44 141 1.7 4.3 0.01 0.36 0.00 96 1011.8
20260903090030 44 195 0.0 2.6 0.00 0.35 0.00 96 1012.0
20260903084529 45 171 0.9 3.5 0.00 0.35 0.00 96 1012.0
20260903083108 45 149 1.7 5.2 0.00 0.35 0.00 96 1011.9
20260903081607 45 154 2.6 4.3 0.00 0.35 0.00 96 1011.9
20260903080029 45 147 2.6 4.3 0.00 0.35 0.00 96 1011.8
20260903073030 46 158 0.9 3.5 0.00 0.35 0.00 95 1011.4
20260903071530 46 254 0.0 3.5 0.00 0.35 0.00 95 1011.5
20260903070029 46 249 0.9 3.5 0.00 0.35 0.00 95 1011.4
20260903064530 46 225 0.9 4.3 0.00 0.35 0.35 95 1011.4
20260903063028 46 28 0.0 2.6 0.00 0.35 0.35 95 1011.5
20260903060105 46 289 0.0 3.5 0.00 0.35 0.35 95 1011.6
20260903054532 47 134 0.9 2.6 0.00 0.35 0.35 94 1011.5
20260903053030 47 19 0.0 2.6 0.00 0.35 0.35 94 1011.5
20260903051531 48 294 1.7 5.2 0.00 0.35 0.35 94 1011.3
20260903050030 48 332 2.6 5.2 0.00 0.35 0.35 94 1011.3